Список аэропортов
Фактическая погода:

01 марта, 22:30
Температура: +2°C (-1.8*)
Ветер: юго-западный 4 м/с
Давление: *751 мм
неб. облачность
870 м
Время (МСК)Темп. СВетерВлажностьДавлениеОблачностьОсадки
21:00+4ЮЗ, 3 м/с87%1001 гПаоблачно
22:00+2Ю, 2 м/с94%1001 гПаясно
23:00+1Ю, 3 м/с94%1001 гПамалооблачно
02 марта
00:00+1Ю, 4 м/с92%1001 гПамалооблачно
01:00+1Ю, 3 м/с92%1001 гПаясно
02:000Ю, 3 м/с93%1001 гПаясно
03:00-0Ю, 3 м/с94%1001 гПаясно
04:00-1Ю, 3 м/с94%1001 гПаоблачно
05:00-1Ю, 3 м/с94%1000 гПаоблачно
06:00-0Ю, 3 м/с94%1000 гПаоблачносл. снег
07:000Ю, 3 м/с96%1000 гПаоблачноснег
08:000ЮЗ, 3 м/с97%1000 гПас прояснениями
09:000ЮЗ, 3 м/с98%1000 гПас прояснениями
10:00+1ЮЗ, 4 м/с98%1001 гПаоблачно
11:00+2ЮЗ, 4 м/с96%1000 гПас прояснениями
12:00+4Ю, 3 м/с91%1000 гПаоблачно
13:00+5Ю, 4 м/с85%999 гПаоблачно
14:00+6Ю, 4 м/с79%998 гПаоблачно
15:00+6Ю, 5 м/с80%997 гПаоблачнодождь
16:00+4ЮВ, 5 м/с87%996 гПаоблачнодождь
17:00+5ЮВ, 6 м/с87%995 гПаоблачносл. дождь
18:00+5Ю, 7 м/с89%994 гПаоблачносл. дождь
19:00+4Ю, 6 м/с90%993 гПаоблачносл. дождь
20:00+5Ю, 6 м/с90%992 гПаоблачносл. дождь
21:00+3ЮЗ, 9 м/с88%993 гПаоблачно
22:00+2З, 10 м/с98%994 гПаоблачнодождь
23:00+2З, 11 м/с96%995 гПаоблачносл. дождь
03 марта
00:00+3З, 8 м/с93%997 гПаоблачно
01:00+3З, 6 м/с94%999 гПаоблачносл. дождь
02:00+3З, 5 м/с94%1000 гПаоблачносл. дождь
03:00+2З, 5 м/с95%1001 гПаоблачносл. дождь
04:00+2З, 3 м/с96%1001 гПаоблачносл. дождь
05:00+2З, 3 м/с95%1002 гПаоблачно
06:00+3З, 5 м/с94%1003 гПаоблачносл. дождь
07:00+4З, 7 м/с90%1003 гПаоблачносл. дождь
08:00+4З, 6 м/с88%1004 гПаоблачно
09:00+3З, 6 м/с91%1005 гПаоблачно
10:00+4З, 6 м/с92%1005 гПаоблачносл. дождь
11:00+4ЮЗ, 6 м/с90%1006 гПаоблачно
12:00+4ЮЗ, 7 м/с84%1006 гПаоблачно
13:00+5З, 7 м/с78%1007 гПаоблачно
14:00+6З, 7 м/с69%1007 гПаоблачно
15:00+7З, 7 м/с67%1007 гПаоблачно
16:00+8ЮЗ, 8 м/с62%1007 гПамалооблачно
17:00+8ЮЗ, 8 м/с60%1008 гПаоблачно
18:00+7ЮЗ, 6 м/с62%1008 гПаоблачно
19:00+7ЮЗ, 5 м/с62%1008 гПаоблачно
20:00+6ЮЗ, 4 м/с64%1008 гПаоблачно
21:00+6ЮЗ, 4 м/с64%1008 гПаоблачно